Location: Melara
(45.0500°N, 11.1833°E)
Time: 20:05:48
(UTC+00:00)

ATLAS 5 CENTAUR R/B - Pass Details

Date: 26 May 2022
Orbit: 342 x 13895 km, 60.8° (Epoch: 01 July)

Event Time Altitude Azimuth Distance (km) Brightness Sun altitude
Rises 00:07:37 0° 318° (NW) 7,998 8.2 -22.7°
Reaches altitude 10° 00:14:53 10° 316° (NW) 5,147 7.1 -22.3°
Maximum altitude 00:25:02 52° 244° (WSW) 1,081 2.9 -21.8°
Enters shadow 00:25:43 48° 214° (SSW) 1,038 2.7 -21.8°
